Tracking 30070 objects as of 15-Jan-2025
HD Live streaming from Space Station
objects crossing your sky now

DELTA 1 DEB

Track DELTA 1 DEB now!
10-day predictions


NORAD ID: 42091
Int'l Code: 1968-114T
Perigee: 1,455.3 km
Apogee: 1,512.0 km
Inclination: 101.4 °
Period: 115.5 minutes
Semi major axis: 7854 km
RCS: Unknown
Launch date: December 15, 1968
Source: United States (US)
Launch site: AIR FORCE WESTERN TEST RANGE (AFWTR)

Note: This is SATELLITE DEBRIS
Your satellite tracking list
Your tracking list is empty




NASA's NSSDC Master Catalog

Two Line Element Set (TLE):
1 42091U 68114T   25010.72610830  .00000072  00000-0  77879-3 0  9991
2 42091 101.4295   6.2000 0036101 231.5800 303.8253 12.47122855942082
Source of the keplerian elements: AFSPC